Tracking 17886 objects as of 9-December-2016
HD Live streaming from Space Station
objects crossing your sky now

GLOBALSTAR M082

Track GLOBALSTAR M082 now!
10-day predictions
GLOBALSTAR M082 is classified as:


NORAD ID: 38042
Int'l Code: 2011-080C
Perigee: 1,420.2 km
Apogee: 1,421.3 km
Inclination: 52.0 °
Period: 114.1 minutes
Semi major axis: 7791 km
RCS: 4.8173 m2 (large)
Launch date: December 28, 2011
Source: Globalstar (GLOB)
Launch site: TYURATAM MISSILE AND SPACE COMPLEX (TTMTR)
Your satellite tracking list
Your tracking list is empty





NASA's NSSDC Master Catalog

Two Line Element Set (TLE):
1 38042U 11080C   16343.82949105 -.00000097  00000-0  38983-4 0  9994
2 38042  52.0062 119.3803 0000760 100.7545  17.6438 12.62264707230612
Source of the keplerian elements: AFSPC